Decatur, IL

3:34 PM CDT on May 28, 2017 (GMT -0500)
Decatur

Weather History for KDEC - October, 2012

Change the Weather History Date:

Saturday, October 27, 2012

  Actual Average Record
Temperature  
Mean Temperature 42 °F 51 °F  
Max Temperature 50 °F 61 °F 78 °F (1998)
Min Temperature 33 °F 41 °F 28 °F (1997)
Degree Days  
Heating Degree Days 23 14  
Month to date heating degree days 292 285  
Since 1 July heating degree days 372 358  
Cooling Degree Days 0 0  
Month to date cooling degree days 6 14  
Year to date cooling degree days 1427 1043  
Moisture  
Dew Point 32 °F    
Average Humidity 71    
Maximum Humidity 89    
Minimum Humidity 53    
Precipitation  
Precipitation 0.00 in 0.12 in 0.87 in (2015)
Month to date precipitation 3.58 2.83  
Year to date precipitation 22.70 32.03  
Sea Level Pressure  
Sea Level Pressure 30.28 in    
Wind  
Wind Speed 12 mph (North)    
Max Wind Speed 20 mph    
Max Gust Speed 24 mph    
Visibility 10 miles    
Events      
T = Trace of Precipitation, MM = Missing Value Source: NWS Daily Summary

Daily Weather History Graph

Daily Weather History Graph

Search for Another Location

Airport or City:

Trip Planner

Search our weather history database for the weather conditions in past years. The results will help you decide how hot, cold, wet, or windy it might be!

Date:

Astronomy

Oct. 27, 2012 Rise Set
Actual Time 7:19 AM CDT 5:58 PM CDT
Civil Twilight 6:51 AM CDT 6:26 PM CDT
Nautical Twilight 6:19 AM CDT 6:58 PM CDT
Astronomical Twilight 5:48 AM CDT 7:29 PM CDT
Moon 4:44 PM CDT (10/27) 5:14 AM CDT (10/27)
Length of Visible Light 11h 35m
Length of Day
10h 39m
Waxing Gibbous, 96% of the Moon is Illuminated
Oct 27
Waxing Gibbous
Oct 29
Full
Nov 6
Last Quarter
Nov 13
New
Nov 20
First Quarter

Hourly Weather History & Observations

Time (CDT) Temp. Windchill Dew Point Humidity Pressure Visibility Wind Dir Wind Speed Gust Speed Precip Events Conditions
12:54 AM 39.0 °F 31.0 °F 32.0 °F 76% 30.30 in 10.0 mi North 13.8 mph - N/A   Clear
1:54 AM 37.9 °F 29.6 °F 32.0 °F 79% 30.29 in 10.0 mi North 13.8 mph - N/A   Clear
2:54 AM 37.0 °F 27.4 °F 32.0 °F 82% 30.28 in 10.0 mi North 17.3 mph - N/A   Clear
3:54 AM 36.0 °F 27.1 °F 30.9 °F 82% 30.28 in 10.0 mi North 13.8 mph - N/A   Clear
4:54 AM 34.0 °F 25.0 °F 30.9 °F 89% 30.28 in 10.0 mi North 12.7 mph - N/A   Clear
5:54 AM 33.1 °F 26.1 °F 30.9 °F 92% 30.30 in 10.0 mi NNW 8.1 mph - N/A   Clear
6:54 AM 33.1 °F 24.9 °F 30.9 °F 92% 30.30 in 10.0 mi North 10.4 mph - N/A   Clear
7:54 AM 35.1 °F 28.6 °F 32.0 °F 89% 30.30 in 10.0 mi North 8.1 mph - N/A   Mostly Cloudy
8:54 AM 37.9 °F 30.5 °F 33.1 °F 83% 30.31 in 10.0 mi NNE 11.5 mph - N/A   Clear
9:54 AM 43.0 °F 36.4 °F 34.0 °F 71% 30.33 in 10.0 mi North 12.7 mph 18.4 mph N/A   Clear
10:54 AM 45.0 °F 39.3 °F 36.0 °F 71% 30.32 in 10.0 mi North 11.5 mph - N/A   Clear
11:54 AM 46.9 °F - 36.0 °F 66% 30.30 in 10.0 mi North 12.7 mph - N/A   Clear
12:54 PM 48.9 °F - 36.0 °F 61% 30.27 in 10.0 mi North 11.5 mph 19.6 mph N/A   Partly Cloudy
1:54 PM 50.0 °F - 35.1 °F 57% 30.25 in 10.0 mi NNW 16.1 mph - N/A   Partly Cloudy
2:54 PM 48.9 °F - 33.1 °F 54% 30.23 in 10.0 mi North 15.0 mph - N/A   Clear
3:54 PM 48.9 °F - 32.0 °F 52% 30.24 in 10.0 mi NNW 16.1 mph - N/A   Clear
4:54 PM 46.9 °F - 30.9 °F 54% 30.26 in 10.0 mi North 16.1 mph - N/A   Clear
5:54 PM 44.1 °F 39.5 °F 32.0 °F 63% 30.25 in 10.0 mi North 8.1 mph - N/A   Clear
6:54 PM 43.0 °F 36.8 °F 30.0 °F 60% 30.26 in 10.0 mi North 11.5 mph - N/A   Clear
7:54 PM 41.0 °F 33.9 °F 30.9 °F 67% 30.26 in 10.0 mi North 12.7 mph - N/A   Clear
8:54 PM 39.9 °F 33.4 °F 30.9 °F 70% 30.25 in 10.0 mi North 10.4 mph - N/A   Clear
9:54 PM 39.0 °F 32.3 °F 30.9 °F 73% 30.26 in 10.0 mi North 10.4 mph - N/A   Clear
10:54 PM 37.0 °F 30.4 °F 32.0 °F 82% 30.26 in 10.0 mi North 9.2 mph - N/A   Clear
11:54 PM 37.0 °F 29.8 °F 32.0 °F 82% 30.26 in 10.0 mi North 10.4 mph - N/A   Clear